Theta_e
311 315 319 322 323 326 327 326 327 327 328 329 328 328 329 329 328 328 329 329 329 329 330 330 328 328 328 327 327 328 328 328 328 329 329 329 328 329 328 328 328 328 328 329 328 324 325 325 327 327 327 326 326 324 323 322 323 322 321 320 320 318 318 321 320 319 316 314 315 316 317 317 315 315 316 315 316 315 315 313 310 310 306 305 304
311 311 314 320 322 325 326 326 323 325 327 328 327 328 329 329 328 328 329 329 329 329 329 329 329 329 328 328 328 328 328 327 327 329 329 330 330 329 328 328 329 329 327 329 328 327 326 326 326 327 327 326 325 325 324 321 323 323 323 319 321 320 318 321 322 319 313 312 309 312 314 314 314 315 314 314 314 313 313 313 309 306 304 304 305
308 311 313 317 321 324 325 325 325 327 327 327 328 328 328 328 328 328 329 329 328 328 329 328 330 330 330 329 329 328 330 330 329 329 329 329 330 330 329 329 329 330 329 329 329 328 327 327 327 327 327 327 325 325 324 324 324 324 323 322 319 320 321 320 320 319 310 310 310 310 308 308 311 312 312 314 315 313 313 311 308 305 305 304 303
307 310 312 315 319 322 323 323 324 325 325 326 327 327 328 328 328 328 328 329 329 328 326 329 329 329 329 329 329 329 327 328 330 330 329 329 329 330 330 330 329 329 331 330 330 330 329 328 328 328 328 328 327 326 325 324 324 324 324 323 322 319 319 318 320 319 315 312 308 307 304 306 303 307 309 312 314 313 313 311 307 305 303 301 301
306 309 309 312 317 319 322 323 324 324 325 326 326 327 328 328 328 328 328 328 328 327 326 327 326 326 328 328 326 328 328 328 328 328 329 328 329 329 331 331 331 330 331 332 330 330 331 330 329 329 329 329 328 327 326 326 325 325 325 324 323 320 317 316 318 319 316 317 310 306 305 305 303 305 310 309 311 310 309 306 303 302 301 300 299
307 308 308 308 314 317 319 321 322 323 324 325 326 327 327 327 328 328 328 328 328 327 327 326 325 326 325 325 324 325 324 325 325 326 327 327 327 329 330 332 331 331 331 332 332 330 331 331 331 330 329 329 328 328 327 326 326 325 325 325 323 323 319 317 315 316 318 318 318 313 310 307 304 305 307 301 308 309 308 304 302 301 300 299 299
305 307 307 306 309 313 315 318 321 322 324 325 325 326 326 326 327 328 328 328 328 327 327 325 326 326 326 326 326 325 324 326 327 327 328 328 328 328 329 331 331 331 331 332 333 332 331 331 331 331 330 329 328 328 327 326 326 326 326 325 324 323 320 317 316 315 314 315 316 318 313 312 312 307 304 304 303 306 306 301 300 301 299 299 299
306 305 306 306 308 311 313 316 319 321 323 324 324 325 325 325 326 327 328 327 328 329 328 327 326 326 325 326 325 326 325 325 327 327 328 328 329 329 328 329 331 331 331 332 332 333 331 331 332 331 330 329 327 329 328 327 327 327 326 326 325 323 322 320 316 316 315 314 315 316 315 315 315 312 310 306 301 302 303 304 301 301 299 298 298
306 306 305 305 306 308 311 314 317 319 321 323 324 324 325 325 325 326 327 327 328 328 328 327 326 326 326 326 325 325 326 326 325 326 326 326 328 328 328 329 329 331 332 331 332 332 329 330 330 331 330 330 327 328 328 328 327 327 325 325 325 323 323 322 320 316 316 315 315 315 316 315 314 314 311 308 302 301 301 300 298 299 297 295 296
304 305 305 305 305 305 307 310 313 316 319 321 322 323 324 324 324 325 326 327 327 328 327 328 326 325 325 325 325 325 324 325 324 324 325 326 326 326 327 328 328 328 329 330 331 331 330 329 330 330 330 330 326 329 328 328 328 327 326 325 325 324 324 323 322 319 317 317 316 316 314 312 312 311 311 309 306 304 299 300 299 296 294 293 295
303 304 304 305 305 306 305 306 309 311 313 317 319 322 323 324 324 324 325 326 326 327 328 328 327 326 326 325 325 324 324 324 323 323 323 323 325 325 325 325 327 328 328 328 330 330 331 329 329 330 330 329 327 328 329 329 328 327 326 326 325 325 323 323 321 321 318 317 316 316 315 314 313 310 310 309 307 301 300 300 299 296 295 292 293
303 303 302 302 303 303 304 304 304 307 310 312 314 317 319 322 323 323 324 325 326 326 327 328 328 327 326 326 325 325 324 324 323 323 323 323 323 324 325 325 325 326 328 328 329 330 330 330 329 328 328 329 329 330 330 330 329 328 327 326 325 325 324 322 322 321 319 319 317 317 317 316 315 313 312 311 308 305 304 300 298 296 293 292 295
302 301 301 301 300 300 301 301 301 303 307 309 310 313 315 317 319 321 322 323 325 325 325 326 327 327 327 326 325 325 325 324 323 322 322 323 323 323 323 323 324 325 327 327 328 329 329 328 329 328 328 328 328 329 330 330 330 329 327 325 325 324 324 322 321 322 321 319 318 319 318 317 315 314 313 311 309 308 305 301 297 295 290 291 292
300 301 301 301 301 301 300 300 301 301 301 304 304 307 310 313 314 317 319 319 321 322 324 324 325 326 326 326 326 324 324 324 324 324 323 323 323 323 323 323 323 325 325 326 327 328 328 328 328 329 329 329 328 329 329 329 329 328 326 325 324 324 324 322 322 322 322 321 320 318 317 317 315 315 314 311 309 306 301 299 294 291 289 290 291
302 302 303 304 304 303 302 301 301 301 301 301 302 303 305 307 309 311 312 313 316 319 319 322 323 324 325 325 325 324 324 323 324 324 323 323 322 323 323 323 323 324 324 324 324 326 327 328 328 328 328 328 328 328 328 329 328 327 325 325 324 324 324 323 322 321 320 319 318 317 316 316 315 313 310 310 309 308 305 297 293 290 287 288 289
300 301 302 303 304 303 303 303 303 303 302 302 302 302 303 305 306 308 310 311 313 315 318 320 321 322 323 324 324 323 321 321 321 321 321 321 322 322 322 322 322 322 323 322 324 325 325 326 327 327 328 328 327 327 328 328 327 327 325 324 324 323 323 322 321 321 320 319 318 317 316 314 309 309 307 306 306 306 303 297 294 291 288 284 288
299 301 302 302 302 302 303 302 303 304 303 304 303 302 302 302 303 304 304 306 309 312 315 316 318 318 319 321 320 319 319 319 320 319 320 320 320 321 321 322 322 322 322 323 323 324 326 326 326 326 326 327 326 326 326 326 326 325 324 323 323 322 321 321 320 320 319 318 316 314 314 309 305 306 303 302 301 299 296 294 294 292 289 287 284
301 302 302 302 302 301 302 302 302 303 302 301 302 302 302 303 303 303 304 306 306 309 311 313 314 315 315 316 317 319 319 318 318 318 319 319 320 321 320 320 322 322 323 322 322 323 325 319 325 325 325 326 325 324 325 325 324 323 322 321 321 320 319 317 317 317 315 315 312 311 308 305 304 304 301 298 296 295 294 293 292 292 291 289 287
302 301 300 300 301 302 302 302 302 302 302 302 303 303 302 302 302 303 304 305 306 309 309 311 313 315 316 315 315 317 317 318 318 318 318 319 319 320 320 320 318 320 320 320 320 321 323 323 323 323 323 323 324 323 322 323 322 320 319 317 316 316 315 313 313 313 312 311 308 306 303 303 303 301 299 296 293 294 294 292 293 292 291 290 288
302 301 300 300 300 299 300 301 302 302 302 301 301 301 300 301 301 303 304 304 305 307 308 310 310 312 314 313 313 314 315 315 316 317 318 318 318 317 318 317 319 319 320 318 318 320 320 320 320 321 321 321 321 321 320 321 320 319 317 315 313 314 312 311 308 309 310 310 307 304 301 301 299 298 296 295 293 292 292 292 291 291 290 290 287
302 301 301 300 300 300 300 301 301 299 298 299 300 300 300 300 300 301 302 303 304 305 307 307 308 310 310 312 312 312 313 313 313 315 316 316 317 318 319 319 315 317 317 317 317 318 319 318 318 317 318 319 319 319 318 318 317 316 315 312 309 310 309 305 303 301 301 303 304 302 300 299 297 297 295 294 294 292 291 290 290 289 287 286 287
301 299 298 298 299 300 299 300 298 298 296 297 299 300 299 300 300 299 300 301 301 302 303 304 305 306 308 308 309 308 308 309 310 310 310 311 312 313 314 314 313 314 314 315 314 315 314 316 316 316 316 316 317 318 315 315 314 313 312 310 309 308 306 302 302 302 301 302 300 299 297 296 296 295 293 293 292 291 290 289 287 287 285 286 284
299 298 298 298 298 299 299 299 298 298 298 297 297 300 300 300 300 300 300 300 300 301 301 301 302 303 304 304 305 305 306 307 307 305 306 306 306 306 309 310 310 310 310 311 314 314 313 313 313 313 314 313 314 314 313 313 313 311 308 305 306 307 305 302 301 300 300 299 298 295 294 293 293 292 291 291 290 289 288 287 286 286 285 284 284
298 297 297 297 297 296 298 298 299 298 298 299 300 300 301 301 301 300 300 300 300 301 301 301 301 300 301 301 301 301 303 303 304 304 305 306 307 307 307 307 309 310 311 310 310 313 313 313 312 311 311 311 311 310 309 311 312 309 307 307 305 304 302 301 301 299 298 298 298 296 293 293 292 291 289 288 287 287 286 286 285 285 285 284 283
297 298 297 297 296 295 297 298 299 298 297 299 300 301 301 301 300 301 299 298 298 299 299 299 298 298 298 298 298 298 299 299 301 303 304 305 305 305 306 310 309 309 310 309 309 308 309 309 309 309 309 308 309 308 308 307 306 306 306 304 303 303 302 301 301 299 296 298 297 296 293 292 291 290 288 287 286 285 285 285 285 285 284 284 284
297 298 297 297 298 296 296 296 299 299 300 300 299 299 299 299 300 297 297 297 299 301 300 299 299 298 298 298 299 300 299 299 300 302 302 302 302 302 302 302 303 309 306 306 307 305 306 307 307 307 307 307 306 306 307 307 305 304 303 303 302 301 299 298 297 297 296 297 296 295 292 291 290 289 287 286 285 285 285 284 284 284 284 284 283
298 300 298 296 296 298 299 298 300 298 298 300 299 299 298 297 296 296 295 298 301 302 301 302 300 298 299 300 298 299 299 300 300 300 300 300 300 299 300 301 299 301 303 303 301 303 302 304 305 305 305 305 304 302 303 302 301 301 300 299 297 297 296 296 295 294 294 294 295 293 291 291 290 289 287 285 285 285 285 284 284 284 284 283 282
297 297 298 298 298 297 298 299 298 299 299 299 298 299 298 298 298 296 298 300 303 301 300 300 299 299 299 299 299 299 300 301 300 300 301 301 301 298 298 298 297 299 299 300 301 302 301 299 301 301 301 300 300 298 298 299 299 299 298 296 296 296 295 295 294 294 294 294 293 292 291 290 290 288 286 286 286 285 285 284 284 284 283 282 282
296 295 296 296 297 298 298 298 298 297 298 297 296 295 295 295 297 297 297 300 301 300 300 300 299 299 299 300 300 300 300 299 296 297 297 297 296 295 295 295 295 295 297 297 298 299 297 297 296 296 296 296 297 298 297 297 297 296 297 297 296 295 295 294 293 292 292 292 291 290 289 289 288 286 287 287 287 287 285 284 283 283 283 282 281
295 296 296 297 297 298 300 300 297 298 297 297 297 296 297 298 298 296 296 296 298 299 300 300 299 299 299 299 298 299 298 296 296 295 294 293 293 292 292 293 293 293 293 293 294 294 293 293 293 293 293 295 296 297 293 294 295 298 297 296 294 293 293 292 292 290 289 289 289 288 288 287 286 286 287 288 288 288 288 286 285 283 283 282 281
295 295 295 296 297 298 298 300 299 298 298 299 299 298 297 297 296 296 296 295 298 299 299 299 300 299 299 299 298 295 293 293 295 294 292 291 291 290 290 291 291 291 292 291 291 292 291 291 293 293 293 294 296 297 293 296 297 296 295 294 293 293 292 291 291 290 289 288 287 287 286 286 286 286 287 288 289 289 288 288 287 286 285 283 282
295 295 295 296 296 297 299 301 300 299 297 297 297 297 296 297 296 296 296 295 297 298 299 299 300 299 298 297 294 293 291 291 291 291 290 290 289 289 290 290 290 290 290 290 291 291 291 291 291 291 292 292 293 293 295 296 296 296 294 293 292 292 292 291 290 290 288 287 286 285 284 285 285 285 285 286 287 288 288 288 288 287 287 287 286
296 296 296 296 296 297 299 300 299 300 298 298 298 297 298 297 296 296 295 295 296 296 298 299 298 298 296 296 293 291 291 290 290 290 289 289 288 289 289 289 290 289 289 290 290 291 291 290 291 291 291 291 291 293 294 295 295 294 294 292 291 291 290 290 290 288 287 285 284 284 283 283 283 283 283 283 283 284 287 287 287 287 287 288 288
297 298 298 297 297 297 298 298 298 299 300 299 298 298 298 296 296 294 294 294 295 295 297 297 295 296 294 293 292 291 291 291 290 289 289 288 288 289 289 289 289 288 289 289 290 289 290 290 290 290 290 291 292 291 294 294 294 293 294 293 291 290 290 289 288 287 285 284 284 283 282 282 282 282 282 282 282 282 282 282 282 281 281 283 286
297 297 297 296 296 296 296 294 295 297 297 297 296 295 294 294 294 294 293 294 293 294 295 296 294 294 293 293 292 291 291 291 289 289 288 289 289 289 289 288 289 288 288 288 289 289 289 289 290 290 290 291 291 291 293 293 293 294 294 292 289 289 288 287 287 285 284 284 284 283 282 282 281 281 282 282 281 281 281 280 279 278 279 279 279
298 297 297 297 296 297 297 297 296 296 297 297 297 295 294 293 291 293 291 292 292 293 294 294 293 293 293 293 292 292 291 291 289 289 288 288 288 289 288 289 288 288 289 289 289 289 288 289 289 289 289 291 290 291 292 292 293 293 293 290 288 288 287 286 285 284 283 282 282 282 281 281 281 281 283 285 283 281 280 278 278 277 277 278 279
298 296 297 298 298 298 298 296 294 296 296 295 293 294 292 291 291 291 291 290 290 291 292 292 292 293 293 293 292 292 291 290 289 288 288 288 288 288 288 288 288 288 288 288 288 288 288 288 288 288 290 290 289 289 291 292 292 293 292 288 288 286 286 285 285 284 282 282 282 281 281 281 281 280 284 286 286 283 279 278 278 278 277 277 278
298 295 294 295 294 294 294 297 295 294 294 293 292 292 291 291 290 290 290 289 289 290 290 291 292 292 292 293 292 292 291 289 288 288 288 288 288 287 287 288 288 288 288 287 288 288 287 288 288 288 289 289 289 288 289 291 292 292 290 288 287 286 286 285 284 282 281 280 281 282 281 281 281 280 286 287 287 283 279 279 278 278 277 278 279
299 298 297 295 296 296 294 293 293 293 292 291 291 291 291 290 289 290 289 289 289 289 289 290 291 292 293 292 292 291 290 289 288 288 288 288 288 287 287 287 287 287 287 287 287 287 287 287 287 287 287 288 288 287 289 290 291 292 290 288 287 286 285 284 284 282 281 281 280 282 282 282 281 282 287 288 287 283 279 280 280 279 278 278 279
297 293 294 295 292 292 290 292 292 293 292 291 291 291 290 290 289 289 289 289 289 288 288 289 290 292 292 292 290 290 289 289 288 288 288 288 287 287 287 287 287 287 287 286 286 287 287 287 287 287 287 287 287 287 286 290 291 291 291 288 287 286 285 285 283 283 280 278 280 280 283 286 285 285 287 288 288 285 281 281 281 280 279 279 280
297 295 292 292 292 295 294 293 293 291 291 291 291 291 290 289 289 289 289 289 287 288 288 289 291 292 292 291 290 290 289 288 288 288 287 287 287 287 286 287 287 287 286 286 286 286 286 286 286 286 286 287 287 287 286 289 290 291 291 289 287 286 286 285 284 282 281 280 279 279 279 286 287 286 287 288 288 287 285 282 282 281 281 281 281
293 293 292 291 290 289 288 288 287 290 291 291 291 290 289 288 288 289 288 287 288 288 288 289 290 291 290 289 289 288 288 288 287 287 287 287 287 287 286 286 287 286 286 286 285 286 286 286 286 286 286 286 286 286 286 287 289 290 290 291 287 286 286 285 284 283 282 281 279 277 277 282 287 287 288 288 288 287 286 283 282 284 284 283 280
291 291 290 292 290 289 289 290 289 289 289 289 289 289 288 288 289 288 287 288 288 288 288 288 289 289 289 288 288 288 288 288 288 287 287 287 286 286 286 286 286 286 285 285 285 285 285 285 285 285 285 286 286 286 286 286 287 289 290 290 290 288 289 286 284 283 283 282 280 277 279 282 286 287 288 288 288 288 286 283 284 285 284 283 281
292 293 291 291 292 291 289 286 287 288 288 288 289 288 288 288 288 287 288 288 288 288 288 288 287 287 288 287 287 287 287 287 287 287 287 286 286 286 286 286 286 286 285 285 285 285 285 284 285 285 285 285 285 286 285 285 286 288 289 290 290 290 289 286 285 283 283 282 279 277 278 283 285 286 287 288 288 288 285 285 285 285 284 283 277
291 291 289 289 291 289 288 286 285 286 286 288 288 289 288 288 287 287 287 287 287 287 287 286 285 286 287 287 287 287 286 286 286 287 287 286 285 285 285 285 285 285 285 285 285 285 284 284 285 285 285 284 285 285 285 285 285 286 288 289 289 289 289 288 284 282 282 282 282 284 284 284 285 286 287 287 287 287 287 286 284 284 283 280 276
288 286 287 288 287 287 287 287 284 284 285 286 286 288 288 288 286 287 287 287 286 286 285 284 284 284 285 286 286 286 286 286 286 286 286 286 285 285 285 285 285 285 285 285 284 284 284 284 284 284 285 285 285 285 285 285 285 285 285 287 288 288 286 286 284 282 283 285 286 285 285 285 285 285 285 285 284 285 286 286 284 283 281 278 275
289 288 287 287 287 287 287 286 285 282 284 284 285 284 286 286 286 285 285 285 285 285 284 283 282 282 283 285 285 285 285 286 286 286 286 286 286 286 285 284 285 285 284 284 285 284 284 284 284 284 284 285 284 283 284 284 283 281 280 282 284 285 285 285 283 281 281 280 283 283 283 284 284 284 284 284 284 284 284 284 283 282 279 277 275
287 286 287 287 288 288 287 285 285 283 283 282 282 282 283 284 283 284 284 284 284 283 283 282 281 281 281 282 283 281 283 284 285 286 285 285 285 285 285 285 284 285 285 284 284 284 284 284 283 283 282 281 280 279 278 279 278 279 279 279 279 280 281 282 281 281 281 282 282 282 283 282 282 282 283 282 282 282 282 281 280 278 276 275 275
286 285 287 288 287 287 286 285 284 282 282 281 280 279 280 281 281 282 283 284 283 282 281 280 280 280 280 280 280 280 280 282 282 282 283 283 283 283 284 284 285 286 286 284 283 281 280 277 278 278 277 276 276 276 278 283 281 283 281 279 279 280 279 279 281 283 280 280 280 279 279 279 279 279 280 280 280 279 279 278 276 275 274 274 274
285 285 286 285 285 286 285 284 282 282 282 282 279 278 277 278 280 281 283 283 282 281 280 279 280 280 280 280 280 278 279 279 279 279 278 276 280 282 282 279 277 282 283 284 283 277 277 275 276 276 278 278 277 276 283 286 286 286 286 286 284 284 284 281 283 285 280 276 276 276 276 277 277 278 278 278 278 278 277 275 274 274 273 272 272
283 284 282 284 284 284 284 282 282 282 282 281 278 276 277 277 279 280 282 281 281 281 280 279 279 279 280 279 279 279 279 279 279 278 278 278 275 277 283 283 282 281 282 283 284 285 284 283 278 275 278 284 284 285 285 286 287 287 287 287 286 286 286 285 285 281 277 276 275 275 276 276 277 277 277 277 277 276 275 275 274 273 272 272 272
Wind_Speed
6 8 8 10 10 9 8 7 8 8 8 10 10 10 11 11 9 11 11 10 9 10 9 10 10 9 8 9 9 7 8 7 7 7 7 7 6 7 7 7 7 8 8 8 8 8 8 7 7 6 6 7 8 7 6 7 7 6 5 5 5 3 3 4 4 3 2 1 3 4 3 2 4 3 4 4 4 6 5 4 3 5 4 5 4
6 6 7 8 9 10 9 8 8 11 11 11 12 12 11 11 11 10 10 11 11 10 9 9 10 9 10 10 8 8 8 9 9 8 8 7 8 8 7 7 8 8 9 9 9 9 8 8 8 8 7 7 7 6 6 6 6 6 5 4 4 5 4 5 5 5 1 4 2 3 1 1 1 2 3 4 4 4 4 4 4 4 4 5 5
7 9 8 8 9 10 10 9 9 12 12 13 12 11 12 12 11 10 10 12 12 11 10 10 8 8 9 7 9 7 6 6 7 7 7 8 7 8 9 8 8 7 8 10 9 9 9 8 8 8 8 8 7 7 7 7 7 7 7 7 5 4 4 3 6 7 5 3 1 2 1 2 2 2 2 4 4 4 5 5 5 4 3 3 6
9 9 9 8 9 9 8 9 10 9 9 9 10 13 11 11 11 12 11 12 12 12 11 8 8 6 5 5 6 7 6 5 6 7 7 8 9 8 8 9 9 8 7 8 9 9 9 10 8 8 9 9 9 9 8 8 7 7 7 7 6 6 5 5 6 7 4 7 1 4 3 4 1 5 4 3 5 5 6 5 5 5 3 3 6
11 10 9 9 9 11 12 12 8 9 10 11 11 12 11 14 13 13 11 11 11 12 12 9 7 7 6 5 4 6 5 6 7 9 10 10 10 10 11 10 10 10 10 8 9 10 9 9 9 9 9 9 9 9 9 9 8 8 9 8 9 7 7 5 5 7 5 6 6 2 1 1 4 4 5 1 3 4 4 6 5 5 4 4 5
13 13 13 13 13 12 11 10 11 11 12 12 12 12 11 11 12 11 10 10 10 10 13 11 9 9 9 9 10 9 10 10 13 14 12 12 13 10 9 10 10 10 10 11 9 9 10 10 9 9 9 9 9 9 9 8 9 9 10 9 10 9 7 7 6 5 7 7 5 4 1 2 3 2 6 3 2 1 4 4 5 5 5 5 5
7 10 11 11 12 12 12 12 13 13 13 11 10 11 12 11 11 12 12 10 10 9 11 11 11 10 12 12 11 12 12 12 10 8 9 9 8 9 9 9 11 11 11 11 10 9 10 10 10 10 9 9 8 9 9 10 10 10 9 9 9 9 7 8 8 7 2 3 5 5 2 2 3 4 5 4 4 0 2 3 4 5 4 5 5
9 9 10 10 13 14 15 15 14 15 13 10 11 10 13 13 12 13 11 11 11 11 12 13 13 12 11 11 11 12 13 11 9 9 7 7 9 10 8 9 10 11 11 12 12 11 10 10 10 10 9 9 8 9 10 9 8 8 10 10 9 9 10 9 7 8 10 6 5 6 4 2 3 3 1 5 6 6 4 1 1 5 4 4 5
12 11 10 9 9 12 12 13 14 12 9 12 12 12 11 11 11 11 12 12 11 13 13 14 14 13 13 11 12 12 11 9 6 7 7 7 8 9 9 9 10 11 12 12 11 11 10 11 10 9 10 9 8 8 8 9 11 10 10 10 10 9 9 9 7 9 8 8 6 6 4 5 4 4 3 3 3 4 4 6 4 1 3 3 5
10 12 11 11 9 8 8 9 9 10 10 10 8 8 8 8 11 12 13 12 12 13 13 13 14 13 13 14 15 12 9 7 6 7 8 8 9 9 9 10 10 10 11 12 12 11 10 10 10 11 10 9 8 8 8 9 10 10 11 11 11 11 9 10 11 8 9 7 9 8 7 5 5 5 4 3 1 3 6 7 6 8 6 4 4
9 9 10 10 9 10 7 8 9 7 7 7 8 9 8 9 10 12 14 10 11 13 14 15 14 14 14 15 15 13 11 9 8 8 7 7 9 9 8 8 8 10 9 10 11 11 10 10 10 10 10 10 9 10 10 10 10 10 9 10 11 12 9 9 9 7 9 8 9 9 9 9 9 7 7 6 5 4 2 4 4 6 8 6 4
8 8 7 6 6 6 7 8 7 8 7 8 7 6 7 8 9 11 10 11 11 12 13 14 13 14 14 14 14 13 10 9 11 11 9 9 8 8 7 7 7 7 9 9 10 11 10 10 10 10 10 10 11 10 10 10 9 8 8 8 9 10 9 10 9 9 10 8 9 9 9 8 8 8 8 8 8 6 7 6 7 4 3 3 3
6 6 6 5 6 5 5 6 6 6 8 9 9 8 7 7 9 10 12 11 10 9 10 11 10 12 12 12 11 10 10 11 10 10 9 9 9 9 9 10 8 8 10 10 11 12 11 11 11 11 11 11 11 11 11 10 10 9 9 9 9 10 10 10 10 10 10 10 10 9 8 8 9 6 6 7 6 6 7 6 5 6 5 3 3
5 5 5 6 7 7 8 7 7 7 7 8 8 8 8 8 8 9 11 7 6 7 9 9 11 10 8 9 10 9 10 10 10 10 10 9 9 10 10 10 10 11 10 11 9 11 11 11 11 11 12 11 11 11 11 11 10 9 10 11 11 10 9 11 11 10 10 10 7 9 9 9 8 8 8 7 7 7 6 8 6 2 3 6 2
4 5 5 7 8 7 7 8 8 8 8 8 7 7 7 7 8 9 8 7 7 7 6 8 9 9 9 9 9 8 10 9 9 8 8 9 8 9 9 9 10 9 10 9 9 11 11 11 12 11 11 11 11 11 11 11 10 9 8 10 9 9 10 10 9 10 10 11 9 9 9 8 9 8 6 7 8 9 8 7 8 8 2 1 3
5 5 6 6 6 6 6 6 6 6 7 6 7 7 8 9 8 9 10 8 8 8 9 9 9 7 8 10 10 8 7 7 7 7 6 6 7 8 8 8 8 8 8 9 10 11 11 11 11 11 10 11 11 11 11 10 11 10 9 8 10 7 10 11 10 10 11 11 10 9 9 8 7 7 6 6 7 7 7 7 7 8 10 6 3
6 7 6 6 5 5 6 6 6 6 7 8 8 6 6 5 5 6 5 5 5 6 6 6 6 5 6 6 6 6 6 7 8 6 7 6 6 7 8 8 7 7 7 8 9 9 10 10 10 10 10 10 10 11 11 10 10 10 10 10 11 9 10 11 9 9 9 9 7 8 8 7 6 6 5 5 6 5 4 5 7 9 7 7 6
7 6 5 6 6 6 5 5 5 5 5 5 5 4 5 5 5 5 5 6 5 5 5 5 5 5 5 5 6 6 6 6 6 6 6 6 7 6 5 7 9 7 6 6 7 9 9 10 10 9 10 9 9 8 10 10 10 9 10 10 10 9 9 7 8 8 7 7 6 5 5 6 5 6 5 5 5 5 4 3 4 5 5 7 6
5 5 5 5 6 6 6 5 4 4 5 5 4 5 4 4 5 5 5 5 6 5 5 5 5 5 5 6 6 6 6 6 6 6 5 6 6 6 6 6 4 6 7 7 7 7 8 8 8 8 8 9 9 8 8 9 9 8 8 7 6 7 8 8 7 7 6 7 6 6 5 6 5 6 5 5 4 3 4 3 2 3 3 4 7
6 6 6 6 6 5 6 6 6 6 6 5 5 4 4 3 3 2 2 3 4 5 4 5 5 5 5 5 5 6 6 6 6 6 8 7 6 5 5 5 7 6 6 6 6 7 7 8 8 9 8 8 9 8 8 9 9 9 8 7 7 8 7 8 7 7 7 9 9 8 6 6 6 5 5 5 5 3 3 3 3 3 3 4 6
6 7 6 6 5 5 5 5 5 5 4 4 4 4 4 3 3 1 2 2 2 3 3 4 4 5 5 6 7 6 6 5 5 5 6 6 6 6 5 4 4 5 4 5 5 6 6 7 8 8 8 9 9 9 8 9 9 9 9 8 8 9 9 6 7 5 4 5 6 8 8 6 6 7 5 5 5 4 3 3 3 4 5 4 5
5 5 5 5 5 5 5 5 4 5 4 4 3 4 4 4 4 4 4 4 5 4 4 4 4 4 5 5 5 4 4 3 3 4 4 4 3 2 2 1 3 2 3 3 3 3 4 5 6 7 7 8 9 10 8 8 9 9 9 8 9 10 8 6 6 7 6 7 7 8 7 6 6 7 7 6 6 5 5 5 4 6 6 6 3
5 5 4 5 5 6 6 6 5 5 5 5 5 5 5 5 5 5 4 4 4 4 4 4 3 3 3 2 2 3 2 3 3 4 4 4 4 4 2 2 3 3 3 4 5 6 5 5 5 6 7 8 8 8 8 9 9 10 9 7 7 9 11 11 10 9 9 8 8 8 7 6 5 7 7 6 6 6 5 7 6 5 6 5 4
3 4 4 4 5 5 5 5 6 5 6 7 6 5 5 5 6 5 5 5 4 2 2 3 2 2 2 2 2 2 2 3 4 4 4 4 4 4 4 4 4 4 4 4 4 5 6 8 9 8 8 8 8 7 7 8 9 8 9 12 12 11 10 10 10 9 8 9 10 10 10 10 9 8 7 7 7 6 7 7 7 5 6 6 4
4 4 4 5 5 5 5 5 6 6 5 6 6 6 6 6 5 6 5 4 3 2 1 1 1 1 1 1 2 1 1 2 3 3 4 4 4 4 4 5 4 5 5 6 6 5 6 6 7 8 8 7 8 7 7 7 6 7 10 9 8 9 11 12 12 12 12 12 11 12 11 10 10 10 8 8 8 9 7 8 8 6 6 5 4
4 4 5 5 6 5 5 6 6 6 7 7 6 6 6 5 6 5 5 4 3 2 2 2 2 2 2 2 2 2 3 3 2 3 4 4 4 3 4 3 4 5 5 5 5 5 5 6 6 7 7 7 7 7 8 9 9 8 7 8 9 9 9 8 8 9 11 10 11 10 10 10 10 11 10 9 9 10 8 8 8 7 6 6 5
5 6 5 4 5 6 7 6 6 6 6 7 7 7 6 5 4 5 4 4 4 4 4 4 3 3 4 4 3 3 3 4 4 4 3 4 4 4 3 4 3 4 4 4 4 4 4 5 6 5 5 6 6 5 5 5 5 6 7 7 7 7 8 7 7 7 6 6 7 8 10 11 12 11 11 12 11 10 9 9 9 8 7 7 6
4 5 6 7 7 6 6 6 6 7 6 6 6 6 6 5 6 5 6 5 5 5 5 4 4 4 5 4 4 4 4 5 4 5 6 5 5 4 4 3 2 3 4 4 4 5 5 4 4 5 5 4 4 4 4 4 4 5 6 6 6 7 7 7 7 8 10 10 9 9 10 11 11 10 11 11 11 11 8 8 7 7 8 8 7
8 8 7 6 6 7 7 7 7 6 6 6 5 5 4 5 5 6 7 7 6 5 5 5 5 5 5 5 4 3 4 3 3 2 3 3 3 3 2 1 1 2 2 2 1 2 2 2 0 1 2 2 4 5 5 6 7 6 6 7 8 9 10 9 7 6 6 6 6 6 7 8 9 11 13 11 11 10 11 10 8 8 9 8 7
8 7 7 7 8 7 7 7 6 8 7 6 5 6 6 7 7 6 6 5 6 6 5 5 6 5 5 4 4 3 3 2 1 2 2 1 1 0 0 0 1 0 0 0 1 1 2 3 3 2 3 4 5 5 7 9 8 7 7 7 6 5 6 7 8 7 6 6 7 7 7 11 12 13 14 14 14 12 10 10 12 11 10 9 8
7 7 7 7 7 7 6 7 8 8 9 9 8 7 7 6 6 6 6 6 7 6 6 6 6 5 5 5 4 3 2 1 0 0 0 0 0 1 0 0 0 0 1 1 1 2 3 3 4 4 4 4 4 5 9 11 12 12 8 7 8 7 6 6 8 9 9 8 6 6 6 9 10 11 12 15 14 13 11 10 11 12 11 12 11
8 8 8 9 9 8 8 9 9 9 8 7 7 7 7 8 7 8 7 7 7 7 7 7 6 4 4 4 4 3 2 1 1 1 1 1 1 1 0 0 0 0 0 0 1 2 2 2 3 3 4 4 4 5 9 10 10 11 10 7 6 8 8 7 8 8 8 8 7 7 5 6 7 8 8 9 10 11 11 13 13 13 12 10 8
11 11 12 11 11 11 11 10 8 8 9 9 9 8 9 8 9 8 8 8 7 7 6 6 5 5 5 6 5 4 3 3 2 2 2 2 2 1 1 1 0 0 1 1 1 1 1 1 2 3 4 4 3 5 9 10 10 11 10 8 5 6 7 8 8 8 8 8 7 7 7 5 5 10 9 7 8 8 9 12 12 11 10 10 10
11 13 14 12 9 8 9 10 11 10 10 8 9 10 9 8 8 7 8 7 7 6 6 5 5 6 6 6 6 6 5 5 4 4 4 3 2 2 1 1 1 1 1 1 1 1 1 2 2 3 3 2 3 3 8 9 9 11 11 9 6 7 6 7 7 8 7 8 9 9 9 8 6 8 8 9 8 8 8 8 7 6 5 6 7
13 13 11 9 10 8 8 6 7 8 7 7 7 6 6 6 7 8 7 8 7 7 6 6 6 6 6 7 7 6 6 6 5 5 5 5 4 3 2 2 3 3 2 2 2 2 1 1 2 1 1 2 2 3 7 8 8 9 9 7 3 3 3 4 5 6 7 8 8 8 8 9 9 9 9 10 10 9 8 7 6 5 5 4 4
14 15 13 11 10 12 11 12 8 7 8 8 9 7 8 7 6 8 8 7 8 7 7 6 7 7 7 7 7 6 6 6 6 5 5 5 4 5 4 3 3 2 2 2 1 2 2 2 1 2 2 4 2 5 7 7 8 7 7 4 3 4 5 5 5 6 6 6 7 8 8 9 9 9 10 14 10 8 8 9 8 5 4 4 4
15 10 11 12 12 12 12 7 7 9 9 9 6 7 7 7 7 7 8 7 7 7 8 8 7 6 6 6 6 6 5 5 6 5 4 4 4 4 3 3 3 3 2 2 2 1 1 2 2 2 3 4 2 4 7 8 8 9 7 3 4 3 4 6 6 5 5 6 6 7 7 7 8 8 11 16 15 11 8 9 8 7 5 4 4
12 8 8 8 8 7 7 10 11 10 9 7 8 9 9 8 8 7 8 7 7 8 7 7 6 6 6 7 7 6 6 5 5 5 4 3 3 3 3 3 4 4 3 2 2 2 1 2 2 2 1 2 1 1 5 6 8 9 8 5 3 3 4 4 4 3 3 4 5 10 8 7 8 7 13 16 17 12 9 9 8 8 7 7 6
12 12 12 10 10 11 11 8 9 10 8 8 9 10 10 9 9 8 7 8 9 8 8 8 7 6 6 7 7 7 6 6 5 5 5 5 4 4 3 3 2 3 2 2 2 2 1 1 2 2 2 2 2 2 6 7 8 9 8 5 4 4 5 4 3 4 4 6 5 8 11 9 7 7 15 16 17 12 9 9 10 9 9 9 8
13 8 9 10 6 6 6 9 11 13 9 10 10 9 9 10 9 7 8 10 10 7 6 6 7 7 7 6 5 6 6 7 6 5 4 4 3 4 3 3 3 3 3 2 2 2 1 0 0 0 1 1 2 1 3 8 9 10 11 6 3 4 6 5 4 5 6 4 6 6 8 10 11 12 15 16 16 15 9 8 8 9 9 10 7
13 12 9 6 9 12 14 15 13 9 10 10 10 10 9 8 8 8 11 9 6 7 7 7 7 7 7 7 5 6 7 5 6 6 5 4 4 4 4 4 3 3 3 2 2 1 1 0 0 0 0 1 1 2 2 6 8 9 10 9 4 5 4 4 5 6 6 6 6 5 4 6 11 13 16 17 16 16 11 8 9 9 7 4 9
8 10 7 7 7 7 6 5 6 11 11 11 11 11 9 8 8 10 8 6 7 8 8 8 8 8 7 6 6 5 6 6 5 6 6 5 4 5 5 5 4 4 3 3 2 1 0 0 1 0 0 2 2 2 2 5 8 9 9 10 5 4 3 2 3 4 4 4 4 3 4 5 9 12 15 16 17 16 15 8 9 8 8 12 9
8 6 7 10 7 8 10 11 8 8 9 9 10 10 8 8 10 8 6 8 8 9 9 9 8 7 7 7 7 7 6 6 6 7 7 7 6 6 5 5 5 5 4 3 3 2 1 0 1 0 0 1 2 1 3 3 5 7 8 9 10 6 3 1 3 4 4 3 1 2 2 5 8 10 13 16 16 17 13 8 11 11 11 11 8
9 11 12 12 12 10 9 6 6 7 8 9 11 11 9 10 9 7 8 8 9 8 9 9 9 8 8 7 7 6 5 5 6 6 6 7 6 5 5 5 5 5 4 4 3 3 2 1 1 1 1 2 2 2 2 4 3 5 8 9 10 11 7 3 2 3 2 2 1 2 3 8 9 10 13 14 15 15 9 11 12 12 12 10 6
10 10 9 9 12 11 8 6 5 7 6 8 7 11 10 11 8 8 9 10 9 9 9 9 8 8 7 6 6 5 5 4 4 5 5 5 5 5 4 3 4 3 3 3 3 3 3 1 1 2 2 2 3 3 3 4 6 6 9 10 11 12 12 6 2 1 1 3 6 8 8 11 12 11 13 13 12 13 13 11 14 14 11 6 7
6 5 7 8 6 7 9 10 6 6 7 6 7 9 14 10 8 8 8 9 10 10 9 8 8 7 7 7 7 6 5 5 4 4 4 5 5 4 4 4 3 3 3 3 3 3 3 2 3 3 3 3 3 4 3 3 5 7 7 10 11 11 11 8 5 3 6 9 10 11 12 13 12 10 8 8 8 9 13 14 15 13 8 6 6
10 9 9 7 8 9 10 10 9 5 6 5 6 4 5 7 8 7 7 8 8 9 9 8 8 7 7 7 7 6 5 5 4 4 4 4 4 4 4 4 4 4 3 3 3 3 3 4 4 4 3 3 3 4 4 4 5 5 4 4 6 7 8 8 6 5 5 6 9 9 9 11 10 14 13 10 8 8 9 10 9 8 6 5 6
5 7 8 8 10 11 11 10 10 7 5 4 4 4 5 6 6 7 7 8 8 9 9 9 8 7 7 7 7 8 7 5 5 5 5 5 4 5 5 5 6 5 5 4 4 4 4 4 4 3 3 3 3 3 4 5 4 5 6 5 5 5 6 6 6 5 5 6 6 7 9 8 7 7 8 7 8 8 8 8 7 6 5 5 6
8 8 10 13 12 11 11 11 9 6 6 5 5 5 5 6 6 7 8 10 9 8 9 8 8 7 7 7 7 7 7 7 6 5 5 6 7 6 6 5 4 5 6 6 5 5 4 4 6 4 4 4 3 4 5 6 7 8 7 6 5 6 5 5 7 8 5 4 5 5 5 6 7 8 8 9 9 8 7 5 5 5 5 6 6
5 6 7 6 7 10 11 10 9 8 7 7 6 5 5 5 6 6 8 10 10 10 9 8 7 7 7 7 7 7 7 7 7 7 6 3 2 6 6 6 4 4 7 6 6 3 6 4 3 3 3 4 4 3 5 7 9 10 11 11 8 8 8 6 8 14 8 5 6 6 7 8 8 8 9 9 9 7 6 5 4 5 5 6 7
7 8 5 6 7 9 10 10 10 9 9 8 8 6 6 5 5 6 8 10 10 10 8 7 7 7 7 7 7 7 7 7 7 6 6 6 3 0 2 5 6 5 4 5 5 5 5 4 4 2 3 3 2 1 2 3 6 7 8 9 9 10 11 11 12 8 4 7 7 7 7 7 7 7 7 7 6 6 7 7 7 6 6 7 7
Wind_Direction
203 199 183 181 183 181 182 178 179 183 185 185 186 186 187 192 182 184 185 183 184 188 192 190 194 197 207 208 208 199 198 187 193 197 197 195 192 188 180 176 175 183 190 191 194 195 197 194 192 198 185 179 186 198 192 188 187 188 195 188 199 209 223 207 215 161 150 306 282 256 243 165 146 149 157 139 137 159 178 157 126 112 129 120 126
196 201 194 177 178 179 177 181 176 181 192 188 191 189 188 190 195 188 178 188 194 196 195 196 197 199 197 203 199 201 197 196 199 198 202 197 196 191 187 185 184 185 190 192 196 195 196 195 192 193 188 189 190 192 191 188 188 186 173 196 196 193 222 199 199 131 189 208 218 251 58 15 157 204 177 160 152 159 144 121 110 115 124 139 128
194 197 190 181 176 177 177 186 190 190 188 192 191 187 188 192 196 190 183 188 196 196 196 203 197 199 198 201 197 205 215 207 204 202 200 204 204 198 194 194 194 196 190 196 197 198 197 195 194 189 190 183 188 198 193 194 190 186 180 181 193 206 214 215 172 168 184 148 87 90 199 151 310 320 217 166 166 165 130 117 131 127 153 157 140
194 191 192 189 181 179 181 189 195 190 190 196 193 193 192 197 196 192 191 188 193 196 198 199 199 200 200 195 198 206 206 204 205 206 206 205 213 204 201 198 200 201 205 197 201 200 196 197 194 192 192 188 190 195 196 196 187 186 185 188 172 193 205 228 181 185 147 136 188 182 210 152 192 242 195 221 181 173 145 147 136 149 158 108 109
194 194 195 188 185 189 189 194 185 189 196 198 197 194 197 198 197 194 194 193 190 190 191 189 183 194 196 204 203 203 215 209 206 211 206 206 210 207 206 198 198 202 210 213 201 202 199 197 198 197 193 193 194 194 194 198 193 191 189 191 194 187 198 195 209 185 189 183 146 130 245 249 216 204 149 229 166 157 158 138 135 145 147 126 113
193 195 195 191 191 193 194 186 185 195 199 203 198 199 198 198 194 194 196 196 197 189 187 186 193 191 187 193 202 203 207 205 208 207 199 201 207 206 201 198 201 202 205 219 216 203 202 201 198 199 200 195 193 193 191 190 198 195 196 193 198 198 181 187 197 211 190 197 206 181 149 173 185 202 132 202 254 211 157 139 146 145 136 132 135
214 199 193 188 190 188 192 190 193 195 205 199 195 200 201 196 193 192 194 196 194 189 179 184 195 200 200 201 203 205 210 216 214 208 205 204 194 200 202 199 202 202 206 210 222 213 208 204 202 202 202 200 191 190 194 195 194 198 192 194 196 191 186 191 186 187 159 252 226 226 149 188 180 135 197 121 173 179 172 152 158 143 139 133 146
211 209 199 190 184 185 189 194 194 200 199 184 197 198 198 198 192 193 194 194 193 189 181 185 193 199 203 206 207 214 216 220 207 213 203 185 191 198 195 199 200 203 205 209 215 218 213 211 207 205 204 203 191 198 200 196 192 196 195 195 192 191 193 197 183 178 182 207 203 225 220 218 252 237 195 163 160 161 209 251 106 150 146 161 157
217 216 215 207 194 192 190 192 200 198 182 188 195 198 198 195 194 194 196 196 194 190 189 188 193 196 201 205 213 219 219 220 208 201 200 185 192 195 196 198 199 203 206 209 212 215 210 212 211 210 207 207 200 204 202 195 194 194 196 196 196 193 193 195 181 185 186 190 172 213 198 208 223 239 207 150 147 152 198 175 187 193 136 158 148
217 221 221 218 213 210 199 192 188 189 189 191 188 186 195 195 197 196 202 198 195 192 193 192 192 192 200 207 213 215 211 213 199 205 201 192 203 196 192 195 199 202 206 207 211 213 208 206 210 212 212 211 210 212 207 202 200 200 198 197 194 192 193 193 199 180 189 182 184 173 181 182 203 226 232 180 179 155 166 197 180 168 176 221 159
206 211 213 213 209 202 190 175 185 180 180 179 185 187 187 195 202 202 206 198 195 197 193 197 194 195 204 207 210 213 207 204 205 214 201 195 205 207 202 197 193 203 201 208 209 208 208 203 210 211 211 212 212 215 214 209 205 202 198 195 194 192 191 195 200 191 182 181 181 180 187 185 189 187 196 194 184 178 153 211 186 189 175 162 208
198 196 203 187 163 170 172 179 167 173 172 183 187 186 186 194 198 208 210 204 202 201 198 202 198 200 207 207 209 209 202 202 207 210 204 204 202 206 208 211 210 196 198 204 207 207 207 208 209 211 211 210 212 215 216 211 205 199 194 194 196 195 191 189 193 194 188 189 187 188 192 193 200 197 191 185 182 195 176 195 176 162 143 174 159
157 174 176 173 175 173 179 188 169 164 181 186 188 186 190 192 198 204 214 209 206 200 205 208 208 211 210 210 212 206 203 204 204 206 201 203 199 200 197 208 205 202 202 204 207 204 206 212 210 212 216 213 213 212 215 211 207 202 199 197 196 195 194 188 190 198 192 196 191 190 189 193 200 197 179 187 193 180 174 176 218 162 161 162 171
162 166 174 186 191 194 196 192 191 191 190 189 189 189 193 198 202 207 219 209 207 204 208 210 214 218 216 213 215 212 215 211 210 205 202 202 197 200 199 203 204 206 199 206 200 202 208 212 213 216 216 214 212 212 210 208 203 202 200 199 197 197 191 193 198 198 201 206 194 186 189 191 194 190 189 184 183 172 185 180 167 139 110 165 144
168 174 183 192 197 190 187 189 195 199 197 194 194 199 192 200 202 212 219 214 208 211 206 211 215 214 215 215 212 210 217 217 219 212 202 202 203 202 204 200 202 201 201 198 190 200 207 209 213 216 212 210 206 209 209 206 205 201 200 198 194 190 194 193 197 195 201 202 197 192 188 189 187 189 178 188 179 185 176 173 162 152 127 134 169
207 209 214 203 189 183 177 181 187 188 191 188 192 189 193 203 203 210 211 207 204 206 210 211 213 208 212 214 215 211 211 215 222 219 218 206 205 206 208 203 198 191 197 187 195 196 202 208 211 216 214 211 207 208 206 205 203 204 202 199 198 190 193 196 197 195 201 197 193 189 186 191 171 165 156 162 172 169 170 156 172 170 162 195 208
219 213 208 188 173 172 175 176 178 178 180 189 192 188 190 190 197 213 217 211 213 212 211 213 213 210 218 217 214 215 211 211 213 216 217 218 212 212 208 209 203 199 197 192 188 193 195 201 209 215 216 212 207 204 204 205 202 202 203 200 202 194 193 197 194 197 197 188 184 185 187 165 163 142 119 119 131 124 125 140 175 182 183 160 180
216 198 173 171 175 177 179 180 178 180 185 180 179 173 174 179 183 192 196 203 213 203 208 204 209 217 221 220 219 213 213 216 214 217 216 217 225 224 215 210 213 208 199 191 189 190 195 195 204 210 213 214 211 199 197 196 195 199 199 200 197 183 188 186 188 184 181 178 164 157 147 144 147 135 128 115 109 121 118 117 150 162 163 175 169
204 166 156 162 175 182 180 181 172 154 152 158 148 141 154 175 185 183 199 199 197 201 201 206 199 205 209 219 219 223 219 219 220 219 217 222 227 228 228 228 220 204 198 194 194 192 192 196 200 207 206 209 209 204 195 193 190 193 192 192 188 181 180 179 176 173 172 158 156 148 136 141 143 137 126 109 94 99 117 105 120 120 104 131 135
186 180 184 190 193 190 177 165 162 152 140 134 132 133 152 167 159 184 199 190 192 193 191 200 208 203 213 211 218 211 214 214 213 211 216 221 225 225 227 224 212 196 197 189 189 194 192 194 199 204 207 208 209 208 201 199 197 199 194 190 184 180 182 181 181 180 172 168 159 151 154 152 143 131 126 127 122 99 104 121 130 128 110 112 120
185 184 181 175 170 162 159 145 135 115 104 111 124 150 156 126 143 171 174 170 178 200 191 207 200 208 200 207 211 213 221 218 224 222 220 222 221 220 223 208 188 204 189 192 192 194 194 199 200 203 204 206 207 207 201 197 197 196 190 180 171 173 171 166 151 146 146 145 150 149 155 151 144 142 146 135 137 137 117 125 139 128 132 127 135
185 188 167 159 155 149 128 108 111 115 116 118 131 128 134 150 172 178 187 191 195 212 210 223 228 222 217 219 225 231 233 247 256 270 263 265 264 258 242 230 195 222 185 188 195 196 199 207 214 212 212 211 209 205 196 192 193 190 187 177 171 164 156 156 155 157 160 156 149 147 151 151 158 153 154 159 162 153 158 154 170 158 159 149 135
181 170 160 154 155 154 153 149 148 152 157 157 166 164 168 171 169 176 180 210 189 199 204 219 233 250 262 267 255 253 260 268 282 290 289 281 281 280 277 224 223 202 198 198 191 189 199 215 228 225 220 217 211 205 196 194 192 182 173 173 173 169 165 167 173 173 169 156 148 147 152 151 148 151 163 163 156 168 164 168 174 165 157 156 139
148 140 137 144 137 124 129 140 147 154 160 171 174 176 173 175 175 171 183 196 178 157 162 179 208 239 261 272 269 260 237 247 251 262 267 272 270 258 242 233 228 218 207 214 209 205 203 208 216 219 218 215 212 206 198 200 194 185 181 180 177 170 166 170 169 166 165 166 168 163 168 166 167 164 165 162 165 166 173 173 169 166 150 152 153
163 166 161 138 129 144 166 172 173 176 178 173 175 182 179 180 174 179 181 184 167 162 156 173 170 212 248 247 267 289 264 260 252 266 270 276 269 258 242 230 229 233 224 215 216 205 209 210 213 213 213 213 210 199 194 196 191 181 180 176 174 170 172 176 179 177 175 173 173 178 174 169 166 162 164 165 169 176 180 170 168 160 150 146 131
187 172 148 163 179 178 180 185 183 179 180 180 181 182 184 182 186 173 166 159 161 157 189 195 200 212 240 251 272 298 297 294 282 278 271 278 281 271 264 260 234 229 221 215 212 215 206 209 210 213 210 211 206 199 196 193 186 182 184 181 179 177 176 172 171 175 177 177 174 168 164 167 169 169 173 171 172 176 172 168 161 155 146 138 138
174 171 174 153 161 185 194 189 187 182 177 178 180 186 185 182 172 162 152 156 174 186 197 197 200 199 211 222 219 223 234 244 244 252 274 278 270 256 245 251 239 227 222 222 222 218 218 211 215 210 209 205 200 199 202 197 185 177 172 170 173 170 166 165 163 158 161 170 172 165 168 174 178 178 171 176 175 172 173 170 166 156 150 143 149
160 155 160 178 194 193 194 193 184 188 183 184 188 185 181 177 179 170 165 175 184 183 187 195 201 205 209 212 207 206 212 216 220 219 221 225 235 241 242 244 229 233 227 220 219 216 227 218 224 209 204 189 183 186 190 185 182 172 167 172 174 167 159 158 162 167 170 177 177 178 179 180 179 177 175 177 172 170 164 163 164 150 150 150 159
193 195 189 188 192 199 197 193 192 180 186 193 190 186 172 180 185 178 171 179 178 180 187 193 203 211 207 198 200 201 201 203 210 222 229 236 237 240 252 257 245 263 268 268 261 232 208 214 179 168 153 152 174 190 184 174 162 169 176 175 175 176 168 159 161 163 169 171 172 175 179 179 176 175 176 174 178 171 162 160 167 158 157 158 159
198 198 199 197 200 197 196 183 180 187 190 192 193 190 190 188 193 184 174 172 162 187 192 201 209 209 197 189 191 175 172 180 188 218 240 261 301 356 27 1 318 293 289 141 152 145 171 183 172 160 164 172 188 190 186 178 181 175 172 167 161 168 162 158 159 159 164 174 176 173 176 174 173 170 169 171 173 177 178 169 164 164 162 162 169
207 204 208 210 209 202 187 181 191 191 195 194 193 190 191 196 191 183 178 170 163 182 194 201 210 193 186 180 160 150 131 160 250 20 41 46 36 45 52 64 47 54 179 188 149 165 191 188 187 185 189 200 201 198 185 182 181 174 166 165 168 169 162 161 167 166 174 176 176 168 158 165 166 165 166 167 169 169 165 162 164 166 168 167 167
206 211 213 212 210 201 190 194 198 198 194 189 187 185 179 200 187 186 178 166 170 185 192 200 195 180 173 158 149 139 141 140 101 84 76 74 85 80 64 82 130 202 335 80 189 217 207 202 195 197 200 210 214 197 181 188 185 178 172 169 166 166 168 172 173 177 176 171 165 157 157 158 163 161 154 154 155 156 157 159 161 163 170 178 183
199 207 216 215 208 201 196 202 195 190 193 199 179 170 194 190 184 185 159 168 177 182 189 191 185 172 167 154 150 150 151 150 146 135 131 110 112 124 128 126 115 72 115 153 252 169 216 226 199 207 223 226 230 195 186 187 182 174 167 157 163 170 175 183 179 178 174 170 161 159 160 163 158 153 148 152 150 148 145 146 147 148 153 164 174
212 211 210 213 213 216 211 201 194 193 191 184 180 186 193 180 168 154 159 168 167 182 184 187 176 178 170 166 160 156 164 164 149 140 133 131 132 141 147 143 128 113 138 162 179 202 188 199 210 225 246 269 245 221 199 190 182 178 177 173 180 183 184 180 181 177 174 171 170 170 167 171 168 163 161 159 157 154 151 144 145 150 155 161 167
220 223 219 207 206 212 215 209 198 186 175 164 185 178 154 147 152 154 162 161 172 172 186 185 183 181 172 171 167 166 165 158 152 146 142 145 145 137 142 149 150 160 162 179 190 198 208 196 210 201 198 223 247 194 205 200 197 192 186 171 156 156 168 179 182 180 177 174 175 176 177 176 173 173 175 167 161 161 155 152 151 160 164 168 170
220 217 213 202 202 203 201 208 194 158 176 180 181 163 150 160 150 155 161 165 165 174 184 184 190 188 181 176 169 168 163 154 152 151 151 156 157 161 161 158 148 153 149 144 159 169 191 196 181 162 175 216 209 177 193 194 189 189 178 164 167 177 182 183 186 183 176 174 175 178 179 179 179 180 178 170 161 152 152 155 161 160 162 170 193
226 207 207 204 203 200 203 185 168 184 176 193 166 157 150 148 155 163 162 167 166 181 190 189 191 183 179 171 167 162 162 157 156 154 164 169 169 162 158 150 147 152 153 159 169 146 154 173 186 188 202 229 218 192 191 190 189 186 173 185 183 189 190 191 198 186 177 173 178 181 184 183 180 184 178 171 164 153 155 161 163 166 168 168 188
226 214 212 203 200 191 178 171 183 189 189 163 157 158 155 158 168 166 165 173 177 197 189 185 186 178 171 163 160 160 161 160 158 169 174 171 156 159 169 163 163 161 170 170 144 133 115 137 162 204 221 255 270 176 210 207 198 192 184 187 189 194 210 203 187 157 161 175 184 186 185 185 186 183 179 174 168 158 163 167 165 167 174 184 184
218 206 210 208 205 189 182 173 169 181 191 166 159 157 156 172 176 176 173 178 197 196 181 181 179 169 165 161 161 162 161 160 165 175 171 168 175 170 151 150 148 143 155 144 141 148 135 134 155 177 193 222 255 165 188 205 202 202 194 195 188 193 203 208 172 173 174 180 191 191 190 187 188 179 183 180 173 165 171 174 174 173 189 198 192
226 216 198 199 172 122 141 169 179 197 172 159 156 159 172 176 183 169 177 198 202 184 165 157 164 166 162 157 157 160 161 163 170 164 166 168 148 138 151 150 144 137 135 123 129 136 163 184 120 153 264 263 285 264 199 210 210 209 203 197 194 188 209 199 185 184 187 206 201 198 200 188 180 180 186 184 180 173 176 175 172 189 193 207 169
220 218 202 162 174 177 180 187 193 173 161 161 157 158 181 188 171 172 200 200 172 153 152 156 154 153 156 159 160 161 159 164 163 163 155 143 152 150 143 144 142 127 120 117 122 122 123 125 78 89 169 292 257 264 245 222 226 222 215 205 215 215 212 194 195 196 199 202 208 209 206 198 183 180 184 187 185 184 180 181 191 202 199 145 147
220 209 179 175 176 190 184 188 177 166 167 164 162 170 181 170 171 198 200 163 151 147 147 149 149 152 153 152 149 149 152 154 152 143 145 146 146 144 148 146 145 142 141 132 119 118 107 18 28 64 357 316 298 251 259 239 235 232 228 221 229 252 258 222 214 219 216 222 211 191 204 218 196 179 185 188 189 189 188 185 202 190 163 163 167
214 196 194 173 177 185 194 191 176 166 163 165 161 170 174 171 187 197 168 152 146 148 146 145 146 147 150 149 147 149 151 151 155 156 150 149 147 142 143 144 145 138 136 131 121 112 103 42 33 70 155 244 261 253 219 238 243 240 238 235 235 245 298 285 249 246 239 248 160 185 181 201 212 195 194 195 196 196 189 197 191 185 180 172 152
209 196 186 179 192 192 186 172 164 160 164 166 168 171 172 175 190 173 153 144 144 144 142 142 147 147 146 146 146 146 145 150 153 149 145 141 143 138 136 147 144 142 142 139 135 132 131 147 227 247 220 213 217 205 203 210 212 228 236 239 241 241 247 281 246 245 251 217 169 157 171 194 210 212 208 206 207 202 201 192 188 187 181 176 149
188 194 183 179 182 179 163 154 165 160 163 169 175 168 169 178 182 159 154 150 145 143 140 141 142 142 141 139 129 130 133 135 139 139 134 132 129 133 129 132 131 130 131 132 126 130 141 149 178 222 226 209 195 193 187 178 193 200 215 218 224 223 225 226 207 203 145 158 157 164 171 190 199 210 214 218 219 217 211 191 190 192 186 178 171
170 148 165 176 155 148 156 162 163 165 162 172 179 170 171 180 159 159 153 146 142 138 136 134 131 129 132 129 125 122 122 124 127 125 127 134 138 139 128 127 126 125 127 133 132 136 150 171 211 222 230 221 197 184 187 172 181 202 209 215 214 217 217 209 163 160 149 149 151 161 172 182 193 201 206 209 212 213 215 202 195 197 198 188 174
182 187 154 147 155 159 170 168 166 170 163 169 165 168 151 141 157 146 140 136 133 129 126 126 126 124 122 124 126 126 123 118 117 110 109 117 125 132 127 131 149 150 153 157 166 170 180 196 220 229 227 223 205 191 190 197 192 192 200 198 206 214 211 202 190 157 139 149 159 162 174 181 188 199 204 210 217 221 221 214 209 198 191 173 175
181 158 163 155 166 173 170 166 166 164 150 138 126 124 127 127 125 131 134 129 125 130 132 130 127 127 129 132 130 129 130 131 135 138 137 139 149 153 152 162 169 173 170 183 185 192 197 202 217 220 224 237 235 213 208 207 210 192 200 195 196 197 200 202 193 175 159 155 157 168 178 185 190 197 205 207 213 210 214 208 198 182 161 156 175
162 180 173 177 175 170 168 159 147 140 132 122 106 97 108 118 128 136 138 128 124 118 118 121 125 125 133 134 134 141 143 144 150 146 156 164 164 168 167 170 182 178 180 179 185 193 193 198 190 195 198 222 231 230 236 207 201 194 191 194 200 205 201 199 191 163 135 144 153 170 180 183 192 202 206 211 212 211 215 186 174 167 156 168 185
188 165 175 164 163 155 148 141 131 131 131 125 115 104 100 121 132 135 132 126 125 121 120 123 127 132 136 134 137 140 141 147 152 151 130 85 102 151 166 157 174 145 130 132 138 159 164 148 150 218 183 190 211 221 227 204 204 200 203 198 201 196 192 186 182 174 162 167 189 192 200 196 202 205 213 214 214 211 203 194 196 179 179 188 200
164 149 147 143 136 131 127 125 134 135 135 131 119 111 113 122 128 124 124 125 127 124 122 126 130 140 144 141 141 138 141 145 153 151 149 146 142 53 143 144 143 140 129 119 121 137 159 175 151 232 313 3 326 266 198 206 216 215 210 211 192 187 184 182 179 159 181 197 204 211 215 211 216 217 225 222 210 203 207 203 205 196 205 204 206